[[{"header":{"parameterUnit":"m.s-1","parameterCategory":1,"la1":30.2991,"la2":30.254,"lo1":-89.0895,"lo2":-89.0444,"dx":0.0017,"dy":0.0017,"nx":28,"ny":28,"refTime":"2023-01-21T15:00:00:Z","depth":0,"parameterNumber":2,"parameterNumberName":"U-component_of_WINDS"},"data":[0,0,0,0,0,0,0,0,0,0,0,0,0,0,0,0,0,0,0,0,0,0,0,0,0,0,0,0,0,0,0,0,0,0,0,0,0,0,0,0,0,0,0,0,0,0,0,0,0,0,0,0,0,0,0,0,0,0,-4.2336,-4.2337,0,-4.2382,-4.2382,-4.2383,-4.2281,-4.2277,-4.2274,-4.2271,-4.232,-4.2324,-4.2328,0,0,0,0,0,0,0,0,0,0,0,0,0,-4.2163,-4.2167,-4.2336,-4.2337,-4.2337,-4.2382,-4.2382,-4.2383,-4.2281,-4.2277,-4.2273,-4.2269,-4.2318,-4.2323,-4.2329,0,0,0,0,0,0,0,0,0,0,0,0,0,-4.2226,-4.2168,-4.2336,-4.2292,-4.2288,-4.2382,-4.2382,-4.2383,-4.2282,-4.2277,-4.2272,-4.2267,-4.2317,-4.2323,-4.2329,-4.2468,0,0,-4.2349,-4.2352,0,0,0,0,0,0,0,0,-4.2223,-4.2233,-4.2298,-4.2295,-4.2291,-4.232,-4.2339,-4.2412,-4.2283,-4.2284,-4.2271,-4.2265,-4.2324,-4.233,-4.2349,-4.2471,-4.2473,-4.235,-4.2354,-4.2357,-4.2359,0,0,0,0,0,0,0,-4.2219,-4.223,-4.2354,-4.2299,-4.2295,-4.227,-4.2274,-4.2352,-4.2331,-4.2284,-4.2277,-4.2283,-4.2321,-4.2343,-4.235,-4.2474,-4.235,-4.2356,-4.236,-4.2362,-4.2713,-4.2718,0,0,0,0,0,0,-4.222,-4.2227,-4.2353,-4.2356,-4.2244,-4.2277,-4.2281,-4.2316,-4.233,-4.2328,-4.2287,-4.2278,-4.2334,-4.2342,-4.2351,-4.2516,-4.2357,-4.2363,-4.2367,-4.2707,-4.2714,-4.272,0,0,0,0,0,0,-4.2216,-4.2232,-4.2351,-4.229,-4.2303,-4.2286,-4.2325,-4.232,-4.2341,-4.2333,-4.2329,-4.2314,-4.2331,-4.2342,-4.244,-4.2516,-4.2366,-4.2372,-4.2701,-4.2709,-4.2717,-4.2847,0,0,0,0,0,0,-4.2212,-4.2231,-4.2284,-4.2291,-4.2307,-4.244,-4.233,-4.2324,-4.2352,-4.2341,-4.2356,-4.2354,-4.2328,-4.2431,-4.2447,-4.2522,-4.2377,-4.2694,-4.2705,-4.2714,-4.2836,-4.2858,-4.2878,0,0,0,0,0,-4.2206,-4.2319,-4.2287,-4.2302,-4.2371,-4.2444,-4.2453,-4.2419,-4.2359,-4.2412,-4.2407,-4.2354,-4.2505,-4.2442,-4.2459,-4.2538,-4.2689,-4.2702,-4.2714,-4.2826,-4.2854,-4.2877,0,0,0,0,0,0,-4.2321,-4.2319,-4.2284,-4.2402,-4.2424,-4.2427,-4.2492,-4.245,-4.249,-4.2478,-4.2435,-4.2439,-4.2547,-4.2551,-4.2481,-4.2673,-4.2587,-4.2603,-4.2667,-4.2693,-4.2714,-4.2711,-4.2382,0,0,0,0,0,-4.236,-4.2418,-4.2413,-4.2518,-4.2531,-4.251,-4.254,-4.2513,-4.2534,-4.2543,-4.2545,-4.2568,-4.2621,-4.2657,-4.2705,-4.2835,-4.2838,-4.2898,-4.2919,-4.2936,-4.2951,-4.3022,-4.3049,-4.276,-4.2759,-4.2759,0,0,-4.2441,-4.2447,-4.2487,-4.2541,-4.2555,-4.2618,-4.2519,-4.2588,-4.2635,-4.2554,-4.2647,-4.265,-4.2673,-4.2788,-4.2839,-4.2796,-4.3031,-4.2951,-4.2965,-4.2971,-4.3037,-4.3064,-4.3089,-4.2768,-4.2766,-4.2765,0,0,-4.2622,-4.2632,-4.2721,-4.2736,-4.2758,-4.2743,-4.2765,-4.2774,-4.2773,-4.2865,-4.2806,-4.286,-4.2952,-4.2971,-4.2993,-4.3181,-4.3135,-4.3198,-4.3308,-4.3378,-4.3401,-4.3421,-4.349,-4.3515,-4.3212,-4.3213,-4.3213,0,-4.2721,-4.2812,-4.2772,-4.2847,-4.2873,-4.2801,-4.2892,-4.2909,-4.2946,-4.2967,-4.2917,-4.303,-4.3041,-4.3161,-4.3207,-4.3226,-4.325,-4.3197,-4.34,-4.342,-4.3438,-4.3503,-4.3529,-4.322,-4.3219,-4.3219,-4.3218,0,-4.2933,-4.2997,-4.3066,-4.3104,-4.3137,-4.322,-4.3193,-4.3232,-4.3202,-4.3192,-4.3288,-4.3298,-4.3348,-4.3373,-4.3344,-4.349,-4.3462,-4.3407,-4.332,-4.3474,-4.3535,-4.3559,-4.3231,-4.3229,-4.3226,-4.3224,0,0,-4.3189,-4.3203,-4.3229,-4.3245,-4.3264,-4.3313,-4.3392,-4.344,-4.3475,-4.3502,-4.3569,-4.3648,-4.3597,-4.3622,-4.3594,-4.3655,-4.3805,-4.3592,-4.3592,-4.3633,-4.3968,-4.4011,-4.404,-4.3773,-4.3778,-4.3781,-4.3967,0,-4.3369,-4.3505,-4.3472,-4.3607,-4.3666,-4.3599,-4.3668,-4.3687,-4.3681,-4.3731,-4.3723,-4.378,-4.3708,-4.3723,-4.378,-4.3775,-4.3872,-4.3761,-4.3836,-4.384,-4.3835,-4.4072,-4.4117,-4.4292,-4.399,-4.3994,-4.3997,0,-4.3598,-4.3635,-4.3776,-4.3785,-4.3809,-4.3872,-4.3913,-4.3961,-4.3982,-4.3972,-4.4,-4.3961,-4.404,-4.395,-4.4059,-4.3984,-4.4013,-4.4015,-4.4021,-4.4029,-4.3929,-4.4088,-4.4346,-4.4373,-4.4033,-4.403,-4.4028,0,-4.3774,-4.3857,-4.3953,-4.3969,-4.3981,-4.4027,-4.4035,-4.4051,-4.4082,-4.4118,-4.4138,-4.4183,-4.4208,-4.4244,-4.4218,-4.4154,-4.4332,-4.4239,-4.4328,-4.4329,-4.4371,-4.4369,-4.464,-4.4386,-4.4385,-4.4385,-4.4384,0,-4.398,-4.407,-4.4032,-4.4091,-4.419,-4.415,-4.4249,-4.4248,-4.4263,-4.4322,-4.4265,-4.4321,-4.4282,-4.4335,-4.4315,-4.441,-4.4421,-4.4417,-4.4411,-4.4423,-4.4424,-4.4443,-4.4431,-4.4392,-4.439,-4.4389,-4.4388,0,-4.4194,-4.4172,-4.4272,-4.4275,-4.4278,-4.4351,-4.4355,-4.441,-4.4398,-4.4473,-4.4488,-4.4471,-4.4531,-4.4507,-4.4571,-4.4557,-4.4679,-4.4655,-4.4672,-4.4667,-4.4758,-4.475,-4.5052,-4.509,-4.481,-4.4812,-4.4815,0,-4.4328,-4.4395,-4.4406,-4.4441,-4.4452,-4.4509,-4.454,-4.4504,-4.4539,-4.4567,-4.462,-4.4674,-4.4716,-4.4815,-4.4808,-4.4857,-4.4836,-4.4938,-4.4843,-4.4854,-4.484,-4.4837,-4.4845,-4.4958,-4.4961,-4.4964,-4.4966,0,-4.457,-4.4555,-4.4602,-4.4646,-4.4684,-4.4717,-4.4745,-4.4777,-4.4741,-4.4784,-4.4843,-4.4876,-4.494,-4.4996,-4.5039,-4.5047,-4.5002,-4.4996,-4.5019,-4.5034,-4.5041,-4.5041,-4.4726,-4.4989,-4.4987,-4.4985,-4.4984,-4.4983,-4.4749,-4.4806,-4.4823,-4.4877,-4.4894,-4.4921,-4.4973,-4.4968,-4.5017,-4.5067,-4.5042,-4.5112,-4.5131,-4.5184,-4.5199,-4.5254,-4.5214,-4.5248,-4.5257,-4.5266,-4.5279,-4.5031,-4.5261,-4.5261,-4.526,-4.526,-4.5259,0,-4.4989,-4.4997,-4.5047,-4.5087,-4.513,-4.5082,-4.511,-4.515,-4.5212,-4.5233,-4.5275,-4.5345,-4.5398,-4.5396,-4.5445,-4.549,-4.5471,-4.5504,-4.5502,-4.5505,-4.5311,-4.5287,-4.5519,-4.5519,-4.5519,-4.5519,-4.5519,-4.5519,-4.512,-4.5214,-4.5202,-4.5305,-4.5311,-4.5379,-4.5399,-4.5425,-4.5441,-4.5522,-4.5565,-4.5563,-4.5575,-4.5625,-4.5672,-4.567,-4.5692,-4.5734,-4.5725,-4.5544,-4.5518,-4.5494,-4.5471,-4.5739,-4.5739,-4.5915,-4.5916,-4.5918]},{"header":{"parameterUnit":"m.s-1","parameterCategory":1,"la1":30.2991,"la2":30.254,"lo1":-89.0895,"lo2":-89.0444,"dx":0.0017,"dy":0.0017,"nx":28,"ny":28,"refTime":"2023-01-21T15:00:00:Z","depth":0,"parameterNumber":3,"parameterNumberName":"V-component_of_WINDS"},"data":[0,0,0,0,0,0,0,0,0,0,0,0,0,0,0,0,0,0,0,0,0,0,0,0,0,0,0,0,0,0,0,0,0,0,0,0,0,0,0,0,0,0,0,0,0,0,0,0,0,0,0,0,0,0,0,0,0,0,-4.2441,-4.2441,0,-4.2472,-4.2473,-4.2473,-4.2441,-4.2439,-4.2438,-4.2437,-4.2466,-4.2468,-4.247,0,0,0,0,0,0,0,0,0,0,0,0,0,-4.2349,-4.2351,-4.2441,-4.2441,-4.2442,-4.2472,-4.2473,-4.2473,-4.2441,-4.2439,-4.2438,-4.2436,-4.2466,-4.2468,-4.247,0,0,0,0,0,0,0,0,0,0,0,0,0,-4.2386,-4.2352,-4.2441,-4.2429,-4.2429,-4.2472,-4.2473,-4.2473,-4.2441,-4.2439,-4.2437,-4.2436,-4.2465,-4.2468,-4.2471,-4.2527,0,0,-4.248,-4.2481,0,0,0,0,0,0,0,0,-4.2384,-4.2389,-4.2431,-4.243,-4.2429,-4.2451,-4.2451,-4.2491,-4.2442,-4.2436,-4.2437,-4.2435,-4.2463,-4.2466,-4.2475,-4.2528,-4.2529,-4.248,-4.2482,-4.2483,-4.2484,0,0,0,0,0,0,0,-4.2381,-4.2388,-4.2453,-4.2431,-4.2431,-4.2421,-4.2424,-4.2459,-4.2459,-4.2437,-4.2434,-4.2439,-4.2462,-4.2473,-4.2476,-4.253,-4.248,-4.2483,-4.2484,-4.2486,-4.2627,-4.2629,0,0,0,0,0,0,-4.238,-4.2386,-4.2452,-4.2454,-4.2402,-4.2425,-4.2428,-4.2446,-4.2459,-4.2459,-4.244,-4.2437,-4.2469,-4.2473,-4.2477,-4.2542,-4.2483,-4.2486,-4.2487,-4.2625,-4.2628,-4.263,0,0,0,0,0,0,-4.2379,-4.2387,-4.2451,-4.2419,-4.2427,-4.2428,-4.2448,-4.2447,-4.2458,-4.2462,-4.2461,-4.2451,-4.2467,-4.2473,-4.2514,-4.2542,-4.2487,-4.249,-4.2623,-4.2626,-4.2629,-4.2673,0,0,0,0,0,0,-4.2376,-4.2386,-4.2408,-4.242,-4.2429,-4.2489,-4.245,-4.2449,-4.2464,-4.246,-4.2472,-4.2472,-4.2466,-4.251,-4.2517,-4.2545,-4.2492,-4.262,-4.2624,-4.2628,-4.2669,-4.2677,-4.2684,0,0,0,0,0,-4.2373,-4.2419,-4.241,-4.2418,-4.2457,-4.2491,-4.2495,-4.2488,-4.2466,-4.2488,-4.249,-4.2472,-4.2538,-4.2515,-4.2522,-4.2552,-4.2619,-4.2623,-4.2628,-4.2665,-4.2675,-4.2684,0,0,0,0,0,0,-4.241,-4.2421,-4.241,-4.2462,-4.2476,-4.2485,-4.2512,-4.2499,-4.2519,-4.2514,-4.2503,-4.2507,-4.255,-4.2555,-4.2529,-4.2605,-4.2575,-4.2581,-4.2601,-4.261,-4.2618,-4.2615,-4.2495,0,0,0,0,0,-4.2425,-4.2453,-4.246,-4.2505,-4.2512,-4.2511,-4.2526,-4.2519,-4.2532,-4.2538,-4.2543,-4.2556,-4.2579,-4.2595,-4.2617,-4.2669,-4.2671,-4.2693,-4.2701,-4.2707,-4.2712,-4.2739,-4.2749,-4.2645,-4.2645,-4.2645,0,0,-4.2454,-4.2463,-4.2482,-4.2512,-4.2522,-4.255,-4.2516,-4.2547,-4.2567,-4.2542,-4.2582,-4.2586,-4.2599,-4.2646,-4.2667,-4.2652,-4.2741,-4.2713,-4.2718,-4.272,-4.2744,-4.2754,-4.2763,-4.2648,-4.2647,-4.2647,0,0,-4.2523,-4.2533,-4.2571,-4.2581,-4.2597,-4.2596,-4.2605,-4.2616,-4.2618,-4.2657,-4.2639,-4.2662,-4.2703,-4.2713,-4.2724,-4.2794,-4.2778,-4.2802,-4.2841,-4.2867,-4.2875,-4.2882,-4.2906,-4.2915,-4.2807,-4.2807,-4.2807,0,-4.2557,-4.26,-4.2592,-4.2624,-4.2637,-4.2616,-4.2653,-4.2664,-4.2685,-4.2694,-4.2677,-4.2728,-4.2735,-4.2783,-4.2801,-4.281,-4.2819,-4.28,-4.2875,-4.2882,-4.2888,-4.2911,-4.292,-4.281,-4.281,-4.2809,-4.2809,0,-4.2641,-4.267,-4.2699,-4.272,-4.2737,-4.2772,-4.2768,-4.2785,-4.2777,-4.2777,-4.2816,-4.2825,-4.2847,-4.2858,-4.285,-4.2905,-4.2895,-4.2876,-4.2845,-4.2901,-4.2922,-4.2931,-4.2814,-4.2813,-4.2812,-4.2811,0,0,-4.2734,-4.275,-4.276,-4.2769,-4.2784,-4.2806,-4.2839,-4.2862,-4.2877,-4.2892,-4.2918,-4.2953,-4.2936,-4.2948,-4.294,-4.2963,-4.3017,-4.2942,-4.2942,-4.2954,-4.3076,-4.3089,-4.3099,-4.3007,-4.3009,-4.301,-4.3074,0,-4.2801,-4.2859,-4.2853,-4.2907,-4.2933,-4.2913,-4.2942,-4.2953,-4.2954,-4.2975,-4.2976,-4.3,-4.2976,-4.2983,-4.3005,-4.3006,-4.3041,-4.3001,-4.303,-4.3031,-4.3026,-4.3111,-4.3125,-4.3186,-4.3083,-4.3084,-4.3085,0,-4.2888,-4.2907,-4.2964,-4.2974,-4.2984,-4.301,-4.303,-4.3051,-4.3063,-4.3062,-4.3075,-4.3063,-4.3095,-4.3063,-4.3106,-4.3079,-4.309,-4.3092,-4.3094,-4.3096,-4.3061,-4.3113,-4.3205,-4.3213,-4.3098,-4.3097,-4.3096,0,-4.2948,-4.2988,-4.3027,-4.3035,-4.3048,-4.3066,-4.3072,-4.3083,-4.3096,-4.3113,-4.3121,-4.3142,-4.3152,-4.3168,-4.3161,-4.3139,-4.3204,-4.3173,-4.3203,-4.3203,-4.3217,-4.3216,-4.331,-4.3226,-4.3226,-4.3226,-4.3226,0,-4.3024,-4.3059,-4.3054,-4.3078,-4.3117,-4.3108,-4.3146,-4.315,-4.3159,-4.3182,-4.3166,-4.3188,-4.3178,-4.3199,-4.3195,-4.323,-4.3235,-4.3234,-4.3232,-4.3235,-4.3235,-4.3241,-4.3236,-4.3228,-4.3228,-4.3227,-4.3227,0,-4.3097,-4.3095,-4.3136,-4.3145,-4.3148,-4.3176,-4.3183,-4.3204,-4.3204,-4.3233,-4.324,-4.3238,-4.3262,-4.3257,-4.3284,-4.328,-4.3324,-4.3317,-4.332,-4.3318,-4.3348,-4.3345,-4.3449,-4.3461,-4.337,-4.3371,-4.3372,0,-4.3145,-4.3172,-4.3184,-4.3198,-4.3206,-4.323,-4.3243,-4.3235,-4.325,-4.3265,-4.3285,-4.3307,-4.3325,-4.3363,-4.3364,-4.3384,-4.3377,-4.3412,-4.3379,-4.3381,-4.3375,-4.3374,-4.3375,-4.3418,-4.3419,-4.342,-4.342,0,-4.323,-4.3227,-4.3248,-4.3268,-4.3285,-4.3301,-4.3314,-4.3327,-4.332,-4.3337,-4.3362,-4.3375,-4.3402,-4.3424,-4.3442,-4.3446,-4.3432,-4.3431,-4.3439,-4.3441,-4.3441,-4.344,-4.3336,-4.3428,-4.3427,-4.3427,-4.3426,-4.3426,-4.3291,-4.3314,-4.3325,-4.3348,-4.3358,-4.337,-4.3391,-4.3393,-4.3413,-4.3434,-4.3428,-4.3455,-4.3465,-4.3488,-4.3495,-4.3515,-4.3502,-4.3514,-4.3516,-4.3519,-4.3522,-4.3439,-4.3519,-4.3519,-4.3518,-4.3518,-4.3518,0,-4.3374,-4.338,-4.3402,-4.3421,-4.3439,-4.3425,-4.3439,-4.3454,-4.3479,-4.3489,-4.3507,-4.3534,-4.3555,-4.3557,-4.3577,-4.3592,-4.3586,-4.3598,-4.3596,-4.3597,-4.3534,-4.3524,-4.3602,-4.3602,-4.3602,-4.3602,-4.3602,-4.3602,-4.3419,-4.3456,-4.3454,-4.3495,-4.35,-4.3527,-4.3536,-4.3547,-4.3556,-4.3587,-4.3604,-4.3606,-4.3613,-4.3632,-4.3651,-4.3651,-4.3658,-4.3672,-4.3669,-4.361,-4.3601,-4.3593,-4.3584,-4.3674,-4.3674,-4.373,-4.3731,-4.3731]}]]